Flag for Australia Weather past 2 weeks in Brisbane, Queensland, Australia

Now
73 °F

Passing clouds.


Feels Like: 70 °F
Forecast: 69 / 90 °F
Wind: 6 mph from Northwest

Location: Brisbane Airport M. O

Current Time: Feb 1, 2015 at 1:40:54 AM

Latest Report: Feb 1, 2015 at 1:00 AM


Visibility: N/A

Pressure: 29.68 "Hg

Humidity: 94%

Dew point: 72 °F

Location of BrisbaneLocation

Historic Weather in Brisbane — Graph

°F

Brisbane temperature yesterday

Maximum temperature yesterday: 84 °F (at 12:30 PM)
Minimum temperature yesterday: 66 °F (at 5:30 AM)
Average temperature yesterday: 76 °F

Past Weeks' High & Low Weather Summary

 TemperatureHumidityPressure
High93 °F (Jan 18, 2:00 PM)100% (Jan 17, 3:00 AM)29.89 "Hg (Jan 17, 3:00 AM)
Low66 °F (Jan 31, 5:30 AM)51% (Jan 20, 12:00 PM)29.59 "Hg (Jan 25, 3:00 PM)
Average78 °F77%29.74 "Hg
* Reported Midnight between Jan 16 and Jan 17 — Midnight between Jan 31 and Feb 1, Brisbane, Weather by CustomWeather, © 2014

Note: Actual official high and low records may vary slightly from our data, if they occured in-between our weather recording intervals... More about our weather records

Advertising

Brisbane weather history for previous 24 hours

 ConditionsComfort  
Time TempWeatherWind HumidityBarometerVisibility
12:00 AM
Feb 1
77 °FPassing clouds.15 mph83%29.71 "HgN/A
11:30 PM
Jan 31
77 °FPassing clouds.14 mph83%29.71 "HgN/A
11:00 PM77 °FPassing clouds.15 mph83%29.74 "HgN/A
10:30 PM77 °FPassing clouds.15 mph83%29.74 "HgN/A
10:00 PM77 °FPassing clouds.12 mph79%29.74 "HgN/A
9:30 PM75 °FClear.8 mph78%29.74 "Hg10 mi
9:00 PM75 °FClear.10 mph83%29.74 "Hg10 mi
8:30 PM75 °FClear.12 mph78%29.71 "Hg10 mi
8:00 PM75 °FPassing clouds.15 mph83%29.71 "HgN/A
7:30 PM75 °FPassing clouds.13 mph78%29.71 "HgN/A
7:00 PM75 °FPassing clouds.9 mph74%29.68 "HgN/A
6:30 PM75 °FThundershowers. Passing clouds.6 mph74%29.68 "HgN/A
6:00 PM72 °FThundershowers. Partly cloudy.8 mph83%29.71 "HgN/A
5:30 PM77 °FStrong thunderstorms. Scattered clouds.14 mph61%29.68 "HgN/A
5:00 PM82 °FThundershowers. Scattered clouds.17 mph70%29.65 "HgN/A
4:30 PM81 °FPassing clouds.18 mph70%29.62 "HgN/A
4:00 PM82 °FPassing clouds.20 mph70%29.62 "HgN/A
3:30 PM82 °FPassing clouds.22 mph70%29.62 "HgN/A
3:00 PM82 °FPassing clouds.23 mph70%29.62 "HgN/A
2:00 PM84 °FPassing clouds.20 mph66%29.65 "HgN/A
1:00 PM84 °FPassing clouds.18 mph66%29.68 "HgN/A
12:30 PM84 °FPassing clouds.16 mph66%29.71 "HgN/A
12:00 PM82 °FPassing clouds.15 mph66%29.71 "HgN/A
11:30 AM82 °FPassing clouds.13 mph66%29.71 "HgN/A
11:00 AM82 °FPassing clouds.12 mph66%29.74 "HgN/A
10:00 AM81 °FPassing clouds.9 mph66%29.77 "HgN/A
9:30 AM79 °FPassing clouds.9 mph65%29.77 "HgN/A
9:00 AM79 °FPassing clouds.8 mph70%29.77 "HgN/A
8:30 AM79 °FPassing clouds.7 mph65%29.77 "HgN/A
8:00 AM77 °FPassing clouds.6 mph74%29.77 "HgN/A
7:00 AM73 °FPassing clouds.No wind83%29.77 "HgN/A
6:30 AM72 °FPassing clouds.No wind83%29.77 "HgN/A
6:00 AM68 °FPassing clouds.1 mph94%29.74 "HgN/A
5:30 AM66 °FPassing clouds.No wind94%29.74 "HgN/A
5:00 AM68 °FPassing clouds.No wind88%29.74 "HgN/A
4:30 AM68 °FSunny.5 mph88%29.71 "Hg10 mi
4:00 AM70 °FClear.1 mph83%29.71 "Hg10 mi
3:30 AM68 °FClear.No wind88%29.71 "Hg10 mi
3:00 AM70 °FClear.5 mph88%29.71 "Hg10 mi
2:30 AM70 °FClear.6 mph88%29.71 "Hg10 mi
2:00 AM70 °FClear.6 mph88%29.71 "Hg10 mi
1:30 AM70 °FClear.6 mph88%29.71 "Hg10 mi
1:00 AM72 °FClear.7 mph83%29.71 "Hg10 mi
Weather by CustomWeather, © 2014

See weather overviewHow to use our weather pages